NOAA 16 DEB, 41496

Orbit data source: Space-Track

NOAA 16 DEB, 41496 is space debris in SSO originally from a launch on Thu, 21 Sep 2000 UTC launched from the Air Force Western Test Range (AFWTR). Debris objects in space refer to the collection of defunct objects orbiting the Earth. Examples of debris include non-operational satellites, rocket bodies, and fragments generated from explosions, collisions, or faulty payload assembly.

Loading next visibility...
Identifier
41496, 2000-055LU
Orbit
SSO
Country
Flag of USUS
Related business
Manufacturer
Unknown
Mission
Spacecraft
Bus & Motor
Unknown
Mass
Unknown
Launch date (UTC)
2000-09-21 (26 years ago)
Launch vehicle
Unknown
Launch site
Air Force Western Test Range (AFWTR)
Object type
Payload
Rocket body
Debris
Shape & HBR
Unknown shape, 0.1 m
Radar Cross Section
Medium (>0.1 m² and <1 m²)

Expand to show TLE details & history
Last TLE update: 6 days ago

TLE from 6 days ago
0 NOAA 16 DEB
1 41496U 00055LU  26167.51380109  .00003893  00000-0  12935-2 0  9998
2 41496  98.7301 273.0567 0016690 187.9532 172.1392 14.38228872533226
Epoch: 2026-06-16T12:19Z
TLE epoch observation values (Epoch: 2026-06-16T12:19:52.414Z)
Latitude
-0.00003°
Longitude
-176.69644°
Altitude
779.107 km
Speed
7.458 km/s
True Right ascension
18h 12m 13s
True Declination
0° 00' 00"
Sunlit
Object was in full shadow at epoch
Visualization orbit readout
Latitude
Unknown
Longitude
Unknown
Altitude
Unknown
Speed
Unknown
Apparent Right ascension
Unknown
Apparent Declination
Unknown
Sunlit
N/A
Visualization observer readout
Local Sidereal Time
21:42:02
Azimuth
Unknown
Elevation
Unknown
Doppler factor
Unknown
Orbital elements
Apogee altitude
773.408 km
Perigee altitude
749.575 km
Semi-major axis
7,139.629 km
Eccentricity
0.00167
Inclination
98.7301°
RAAN
273.0567°
Arg. of periapsis
187.9532°
True anomaly
172.1653°
Mean anomaly
172.1392°
Eccentric anomaly
172.15226°
Mean motion
3.59774 °/min
Orbital period
100.06 mins
BSTAR
0.0012935
Loading maneuver chart data...
Computing Atmospheric mass density...
Loading historical data...
Loading historical data...
Loading historical data...
Loading historical data...
Loading historical data...
Loading historical data...
Loading historical data...

Documentation

Showing up to 5 results
|